Location: Fours
(44.3167°N, 6.7000°E)
Time: 07:55:52
(UTC+00:00)

Helios 1A Rocket - Pass Details

Date: 30 November 2020
Orbit: 564 x 585 km, 98.3° (Epoch: 26 January)

Event Time Altitude Azimuth Distance (km) Brightness Sun altitude
Exits shadow 17:30:45 28° 43° (NE) 1,091 3.8 -16.5°
Drops below altitude 10° 17:33:24 10° 7° (N) 1,869 5.3 -17.0°
Sets 17:35:43 0° 357° (N) 2,771 6.3 -17.4°
